Weather History for Shishmaref, AK

Change the Weather History Date:

Saturday, June 15, 2013

  Actual Average Record
Temperature  
Mean Temperature 45 °F -  
Max Temperature 51 °F 42 °F 53 °F (2002)
Min Temperature 39 °F 32 °F 30 °F (1999)
Degree Days  
Heating Degree Days 20    
Moisture  
Dew Point 42 °F    
Average Humidity 92    
Maximum Humidity 100    
Minimum Humidity 81    
Precipitation  
Precipitation 0.25 in - - ()
Sea Level Pressure  
Sea Level Pressure 30.12 in    
Wind  
Wind Speed 8 mph (SSE)    
Max Wind Speed 14 mph    
Max Gust Speed -    
Visibility 6 miles    
Events      
Averages and records for this station are not official NWS values.
T = Trace of Precipitation, MM = Missing Value Source: NWS Daily Summary

Daily Weather History Graph

Daily Weather History Graph

Search for Another Location

Airport:

Trip Planner

Search our weather history database for the weather conditions in past years. The results will help you decide how hot, cold, wet, or windy it might be!

Date:

Astronomy

Jun. 15, 2013 Rise Set
Actual Time 3:37 AM AKDT 2:32 AM AKDT
Civil Twilight Sun does not rise Sun does not rise
Nautical Twilight Sun does not rise Sun does not rise
Astronomical Twilight Sun does not rise Sun does not rise
Moon 2:13 PM AKDT (6/15) 2:37 AM AKDT (6/15)
Length of Visible Light 24h 00m
Length of Day
22h 55m
Waxing Crescent, 41% of the Moon is Illuminated
Jun 15
Waxing Crescent
Jun 16
First Quarter
Jun 23
Full
Jun 29
Last Quarter
Jul 7
New

Hourly Weather History & Observations

Time (AKDT) Temp. Windchill Dew Point Humidity Pressure Visibility Wind Dir Wind Speed Gust Speed Precip Events Conditions
12:16 AM 42.8 °F 36.6 °F 41.0 °F 93% 30.17 in 10.0 mi SSW 11.5 mph - N/A   Overcast
12:36 AM 42.8 °F 36.6 °F 39.2 °F 87% 30.17 in 10.0 mi SSW 11.5 mph - N/A   Overcast
12:56 AM 41.0 °F 35.2 °F 37.4 °F 87% 30.17 in 10.0 mi SSW 9.2 mph - N/A   Overcast
1:16 AM 42.8 °F 38.6 °F 41.0 °F 93% 30.17 in 10.0 mi SW 6.9 mph - N/A   Overcast
1:36 AM 44.6 °F 40.7 °F 42.8 °F 93% 30.17 in 10.0 mi SW 6.9 mph - N/A   Overcast
1:56 AM 42.8 °F 37.5 °F 39.2 °F 87% 30.17 in 10.0 mi SSW 9.2 mph - N/A   Overcast
2:16 AM 42.8 °F 40.1 °F 41.0 °F 93% 30.18 in 10.0 mi SW 4.6 mph - N/A   Overcast
2:36 AM 42.8 °F 40.1 °F 39.2 °F 87% 30.18 in 10.0 mi South 4.6 mph - 0.01 in   Overcast
2:56 AM 42.8 °F 40.1 °F 39.2 °F 87% 30.17 in 10.0 mi SSE 4.6 mph - 0.02 in   Mostly Cloudy
3:16 AM 39.2 °F 34.2 °F 37.4 °F 93% 30.17 in 10.0 mi SSE 6.9 mph - 0.02 in   Overcast
3:36 AM 41.0 °F 35.8 °F 39.2 °F 93% 30.16 in 10.0 mi South 8.1 mph - 0.03 in   Overcast
3:56 AM 41.0 °F 37.1 °F 39.2 °F 93% 30.16 in 10.0 mi South 5.8 mph - 0.04 in   Overcast
4:16 AM 41.0 °F 36.4 °F 39.2 °F 93% 30.16 in 10.0 mi SSE 6.9 mph - 0.01 in   Overcast
4:36 AM 41.0 °F 37.1 °F 39.2 °F 93% 30.16 in 10.0 mi South 5.8 mph - 0.02 in   Overcast
4:56 AM 39.2 °F 33.6 °F 37.4 °F 93% 30.15 in 10.0 mi SSE 8.1 mph - 0.03 in   Overcast
5:16 AM 41.0 °F 38.0 °F 39.2 °F 93% 30.15 in 9.0 mi SSE 4.6 mph - 0.01 in   Overcast
5:36 AM 41.0 °F 38.0 °F 39.2 °F 93% 30.15 in 10.0 mi SE 4.6 mph - 0.01 in   Overcast
5:56 AM 41.0 °F 37.1 °F 39.2 °F 93% 30.15 in 10.0 mi ESE 5.8 mph - 0.02 in   Overcast
6:16 AM 42.8 °F 41.1 °F 41.0 °F 93% 30.14 in 10.0 mi SE 3.5 mph - N/A   Overcast
6:36 AM 41.0 °F - 39.2 °F 93% 30.14 in 10.0 mi Calm Calm - 0.01 in   Overcast
6:56 AM 41.0 °F 37.1 °F 39.2 °F 93% 30.14 in 10.0 mi SE 5.8 mph - 0.02 in   Overcast
7:16 AM 39.2 °F 33.6 °F 39.2 °F 100% 30.14 in 1.5 mi ESE 8.1 mph - 0.01 in   Overcast
7:36 AM 42.8 °F 39.3 °F 41.0 °F 93% 30.13 in 0.8 mi East 5.8 mph - 0.03 in   Overcast
7:56 AM 42.8 °F 38.6 °F 41.0 °F 93% 30.13 in 0.8 mi East 6.9 mph - 0.04 in   Overcast
8:16 AM 42.8 °F 38.0 °F 41.0 °F 93% 30.13 in 0.5 mi ESE 8.1 mph - 0.02 in   Overcast
8:36 AM 44.6 °F 41.4 °F 42.8 °F 93% 30.12 in 0.5 mi ESE 5.8 mph - 0.03 in   Overcast
8:56 AM 42.8 °F 37.0 °F 41.0 °F 93% 30.12 in 0.2 mi SE 10.4 mph - 0.03 in   Overcast
9:16 AM 42.8 °F 37.0 °F 41.0 °F 93% 30.12 in 0.2 mi ESE 10.4 mph - N/A   Overcast
9:36 AM 42.8 °F 37.0 °F 41.0 °F 93% 30.11 in 0.5 mi ESE 10.4 mph - N/A   Overcast
9:56 AM 42.8 °F 36.6 °F 42.8 °F 100% 30.11 in 0.2 mi ESE 11.5 mph - N/A   Overcast
10:16 AM 42.8 °F 36.2 °F 41.0 °F 93% 30.10 in 0.5 mi ESE 12.7 mph - 0.01 in   Overcast
10:36 AM 42.8 °F 36.2 °F 41.0 °F 93% 30.10 in 0.5 mi ESE 12.7 mph - 0.02 in   Overcast
10:56 AM 44.6 °F 38.4 °F 42.8 °F 93% 30.09 in 0.5 mi ESE 12.7 mph - 0.02 in   Overcast
11:16 AM 42.8 °F 37.0 °F 41.0 °F 93% 30.08 in 0.8 mi ESE 10.4 mph - 0.01 in   Overcast
11:36 AM 44.6 °F 38.4 °F 42.8 °F 93% 30.08 in 0.5 mi ESE 12.7 mph - 0.01 in   Overcast
11:56 AM 46.4 °F 41.5 °F 44.6 °F 93% 30.07 in 0.8 mi ESE 10.4 mph - 0.01 in   Overcast
12:16 PM 44.6 °F 40.2 °F 44.6 °F 100% 30.07 in 0.5 mi ESE 8.1 mph - N/A   Overcast
12:36 PM 44.6 °F 39.2 °F 42.8 °F 93% 30.06 in 0.2 mi ESE 10.4 mph - 0.01 in   Overcast
12:56 PM 44.6 °F 38.1 °F 44.6 °F 100% 30.06 in 0.2 mi ESE 13.8 mph - 0.01 in   Overcast
1:16 PM 44.6 °F 38.8 °F 44.6 °F 100% 30.06 in 0.2 mi ESE 11.5 mph - N/A   Overcast
1:36 PM 46.4 °F 41.5 °F 44.6 °F 93% 30.05 in 0.2 mi ESE 10.4 mph - 0.01 in   Overcast
1:56 PM 44.6 °F 39.7 °F 44.6 °F 100% 30.05 in 0.2 mi ESE 9.2 mph - 0.01 in   Overcast
2:16 PM 44.6 °F 38.4 °F 44.6 °F 100% 30.05 in 0.2 mi ESE 12.7 mph - N/A   Overcast
2:36 PM 44.6 °F 38.4 °F 44.6 °F 100% 30.05 in 0.2 mi ESE 12.7 mph - N/A   Overcast
2:56 PM 46.4 °F 40.7 °F 44.6 °F 93% 30.05 in 0.2 mi ESE 12.7 mph - N/A   Overcast
3:16 PM 46.4 °F 40.7 °F 44.6 °F 93% 30.05 in 0.2 mi ESE 12.7 mph - N/A   Overcast
3:36 PM 46.4 °F 40.7 °F 44.6 °F 93% 30.06 in 0.2 mi ESE 12.7 mph - N/A   Overcast
3:56 PM 44.6 °F 38.8 °F 44.6 °F 100% 30.06 in 0.2 mi ESE 11.5 mph - N/A   Overcast
4:16 PM 46.4 °F 41.1 °F 44.6 °F 93% 30.06 in 0.2 mi ESE 11.5 mph - N/A   Overcast
4:36 PM 46.4 °F 42.4 °F 46.4 °F 100% 30.07 in 0.2 mi SW 8.1 mph - N/A   Overcast
4:56 PM 48.2 °F - 46.4 °F 93% 30.06 in 2.0 mi West 3.5 mph - N/A   Overcast
5:16 PM 48.2 °F - 46.4 °F 93% 30.07 in 0.2 mi Calm Calm - N/A   Overcast
5:36 PM 48.2 °F - 48.2 °F 100% 30.07 in 0.5 mi West 3.5 mph - N/A   Overcast
5:56 PM 51.8 °F - 48.2 °F 88% 30.07 in 10.0 mi SW 12.7 mph - N/A   Overcast
6:16 PM 51.8 °F - 50.0 °F 94% 30.07 in 10.0 mi SW 11.5 mph - N/A   Overcast
6:36 PM 50.0 °F - 46.4 °F 87% 30.08 in 10.0 mi SW 10.4 mph - N/A   Overcast
6:56 PM 48.2 °F - 46.4 °F 93% 30.09 in 10.0 mi SSW 10.4 mph - N/A   Overcast
7:16 PM 44.6 °F 39.2 °F 41.0 °F 87% 30.10 in 10.0 mi SSW 10.4 mph - N/A   Overcast
7:36 PM 46.4 °F 42.9 °F 44.6 °F 93% 30.11 in 10.0 mi SSW 6.9 mph - N/A   Overcast
7:56 PM 46.4 °F 44.3 °F 42.8 °F 87% 30.12 in 10.0 mi SSW 4.6 mph - N/A   Overcast
8:16 PM 48.2 °F - 42.8 °F 82% 30.12 in 10.0 mi SSW 9.2 mph - N/A   Overcast
8:36 PM 48.2 °F - 44.6 °F 87% 30.13 in 10.0 mi West 3.5 mph - N/A   Overcast
8:56 PM 48.2 °F - 44.6 °F 87% 30.14 in 10.0 mi West 5.8 mph - N/A   Overcast
9:16 PM 48.2 °F - 44.6 °F 87% 30.14 in 10.0 mi SW 10.4 mph - N/A   Overcast
9:36 PM 48.2 °F - 44.6 °F 87% 30.14 in 10.0 mi SSE 6.9 mph - N/A   Overcast
9:56 PM 48.2 °F - 44.6 °F 87% 30.14 in 10.0 mi SSW 8.1 mph - N/A   Overcast
10:16 PM 48.2 °F - 44.6 °F 87% 30.15 in 10.0 mi SW 5.8 mph - N/A   Overcast
10:36 PM 48.2 °F - 44.6 °F 87% 30.16 in 10.0 mi WSW 5.8 mph - N/A   Overcast
10:56 PM 44.6 °F - 39.2 °F 81% 30.17 in 10.0 mi Calm Calm - N/A   Overcast
11:16 PM 48.2 °F - 42.8 °F 82% 30.17 in 8.0 mi SW 8.1 mph - N/A   Overcast
11:36 PM 48.2 °F - 42.8 °F 82% 30.18 in 10.0 mi SW 6.9 mph - N/A   Overcast
11:56 PM 46.4 °F 41.5 °F 42.8 °F 87% 30.17 in 10.0 mi SW 10.4 mph - N/A   Overcast